This demonstration page uses our WeatherBlox Daily Observations layout. Learn more.

Left ArrowRight Arrow

Hourly Observations for July 2, 2020

Temp ( °F °C ) Dew Point ( °F °C ) Humidity (%) Winds ( mph kmh ) Pressure ( in mb ) Visibility ( mi km ) Precip ( " mm )
12:51 am 00:51 Clear 80 26.7 45 7.2 29 29 NW 8 13 29.76 1008 10 16.0934 0 0
1:51 am 01:51 Clear 78 25.6 40 4.4 26 26 NW 8 13 29.76 1008 10 16.0934 0 0
2:51 am 02:51 Clear 77 25 40 4.4 26 26 NW 7 11 29.77 1008 10 16.0934 0 0
3:51 am 03:51 Clear 78 25.6 36 2.2 22 22 NW 9 15 29.78 1008 10 16.0934 0 0
4:51 am 04:51 Clear 72 22.2 37 2.8 28 28 Calm 29.8 1009 10 16.0934 0 0
5:51 am 05:51 Sunny 71 21.7 37 2.8 29 29 Calm 29.83 1010 10 16.0934 0 0
6:51 am 06:51 Mostly Sunny 77 25 40 4.4 26 26 Calm 29.85 1011 10 16.0934 0 0
7:51 am 07:51 Partly Cloudy 82 27.8 41 5 23 23 S 6 9 29.87 1011 10 16.0934 0 0
8:51 am 08:51 Sunny 87 30.6 38 3.3 18 18 W 9 15 29.86 1011 10 16.0934 0 0
9:51 am 09:51 Sunny 89 31.7 37 2.8 16 16 W 10 17 29.85 1011 10 16.0934 0 0
10:51 am 10:51 Mostly Sunny 90 32.2 42 5.6 19 19 WSW 8 13 29.85 1011 10 16.0934 0 0
11:51 am 11:51 Mostly Cloudy 89 31.7 39 3.9 17 17 SSW 9 15 29.85 1011 10 16.0934 0 0
12:51 pm 12:51 Sunny 91 32.8 49 9.4 24 24 S 13 20 29.83 1010 10 16.0934 0 0
1:51 pm 13:51 Sunny 91 32.8 45 7.2 20 20 W 5 7 29.81 1010 10 16.0934 0 0
2:51 pm 14:51 Sunny 93 33.9 48 8.9 21 21 VRB 5 7 29.79 1009 10 16.0934 0 0
3:51 pm 15:51 Sunny 92 33.3 48 8.9 22 22 WNW 5 7 29.78 1008 10 16.0934 0 0
4:51 pm 16:51 Sunny 93 33.9 48 8.9 21 21 W 6 9 29.77 1008 10 16.0934 0 0
5:51 pm 17:51 Sunny 92 33.3 47 8.3 21 21 W 8 13 29.77 1008 10 16.0934 0 0
6:51 pm 18:51 Sunny 92 33.3 44 6.7 19 19 WNW 6 9 29.75 1007 10 16.0934 0 0
7:51 pm 19:51 Clear 89 31.7 47 8.3 23 23 W 10 17 29.75 1008 10 16.0934 0 0
8:51 pm 20:51 Clear 84 28.9 53 11.7 34 34 NNW 8 13 29.78 1009 10 16.0934 0 0
9:51 pm 21:51 Clear 84 28.9 53 11.7 34 34 NNW 9 15 29.8 1009 10 16.0934 0 0
10:51 pm 22:51 Clear 80 26.7 53 11.7 39 39 NW 6 9 29.82 1010 10 16.0934 0 0
11:51 pm 23:51 Clear 77 25 54 12.2 45 45 SW 5 7 29.84 1010 10 16.0934 0 0

Powered by AerisWeather